Cedar Rapids, IA

3:29 AM CST on December 14, 2017 (GMT -0600)
The Eastern Iowa Airport

Weather History for KCID - October, 2012

Change the Weather History Date:

Sunday, October 7, 2012

  Actual Average Record
Temperature  
Mean Temperature 39 °F 54 °F  
Max Temperature 50 °F 66 °F 89 °F (1916)
Min Temperature 27 °F 42 °F 23 °F (2000)
Degree Days  
Heating Degree Days 26 12  
Month to date heating degree days 122 75  
Since 1 July heating degree days 340 232  
Cooling Degree Days 0 1  
Month to date cooling degree days 0 7  
Year to date cooling degree days 1044 747  
Moisture  
Dew Point 21 °F    
Average Humidity 57    
Maximum Humidity 85    
Minimum Humidity 28    
Precipitation  
Precipitation 0.00 in 0.08 in 1.47 in (1967)
Month to date precipitation T 0.66  
Year to date precipitation 17.66 29.12  
Sea Level Pressure  
Sea Level Pressure 30.19 in    
Wind  
Wind Speed 6 mph (West)    
Max Wind Speed 15 mph    
Max Gust Speed 28 mph    
Visibility 10 miles    
Events      
T = Trace of Precipitation, MM = Missing Value Source: NWS Daily Summary

Daily Weather History Graph

Daily Weather History Graph

Search for Another Location

Airport or City:

Trip Planner

Search our weather history database for the weather conditions in past years. The results will help you decide how hot, cold, wet, or windy it might be!

Date:

Astronomy

Oct. 07, 2012 Rise Set
Actual Time 7:10 AM CDT 6:37 PM CDT
Civil Twilight 6:42 AM CDT 7:05 PM CDT
Nautical Twilight 6:10 AM CDT 7:37 PM CDT
Astronomical Twilight 5:38 AM CDT 8:09 PM CDT
Moon 11:45 PM CDT (10/7) 1:52 PM CDT (10/7)
Length of Visible Light 12h 22m
Length of Day
11h 26m
Waning Gibbous, 56% of the Moon is Illuminated
Oct 7
Waning Gibbous
Oct 8
Last Quarter
Oct 15
New
Oct 21
First Quarter
Oct 29
Full

Hourly Weather History & Observations

Time (CDT) Temp. Windchill Dew Point Humidity Pressure Visibility Wind Dir Wind Speed Gust Speed Precip Events Conditions
12:52 AM 36.0 °F 32.1 °F 25.0 °F 64% 30.25 in 10.0 mi NW 4.6 mph - N/A   Overcast
1:52 AM 36.0 °F 32.1 °F 25.0 °F 64% 30.25 in 10.0 mi NW 4.6 mph - N/A   Overcast
2:52 AM 33.1 °F 26.9 °F 24.1 °F 70% 30.25 in 10.0 mi NW 6.9 mph - N/A   Overcast
3:52 AM 28.9 °F 22.8 °F 23.0 °F 78% 30.24 in 10.0 mi WNW 5.8 mph - N/A   Overcast
4:52 AM 28.9 °F 23.9 °F 24.1 °F 82% 30.24 in 10.0 mi NW 4.6 mph - N/A   Overcast
5:52 AM 28.9 °F 25.2 °F 24.1 °F 82% 30.23 in 10.0 mi West 3.5 mph - N/A   Overcast
6:52 AM 28.0 °F 22.8 °F 24.1 °F 85% 30.24 in 10.0 mi West 4.6 mph - N/A   Overcast
7:52 AM 28.0 °F 24.2 °F 23.0 °F 81% 30.25 in 10.0 mi West 3.5 mph - N/A   Mostly Cloudy
8:52 AM 32.0 °F 25.6 °F 24.1 °F 73% 30.26 in 10.0 mi WNW 6.9 mph - N/A   Partly Cloudy
9:52 AM 39.0 °F 34.8 °F 23.0 °F 53% 30.26 in 10.0 mi NNW 5.8 mph - N/A   Clear
10:52 AM 42.1 °F 38.4 °F 19.0 °F 40% 30.24 in 10.0 mi NNW 5.8 mph - N/A   Clear
11:52 AM 44.1 °F 39.5 °F 19.0 °F 37% 30.24 in 10.0 mi West 8.1 mph - N/A   Clear
12:52 PM 46.0 °F 41.4 °F 19.9 °F 35% 30.22 in 10.0 mi West 9.2 mph 17.3 mph N/A   Clear
1:52 PM 46.0 °F 44.8 °F 19.0 °F 34% 30.19 in 10.0 mi Variable 3.5 mph 17.3 mph N/A   Clear
2:52 PM 48.9 °F - 19.0 °F 31% 30.16 in 10.0 mi SW 11.5 mph 16.1 mph N/A   Clear
3:52 PM 48.9 °F - 18.0 °F 29% 30.14 in 10.0 mi WSW 9.2 mph - N/A   Clear
4:52 PM 48.0 °F - 17.1 °F 29% 30.12 in 10.0 mi SW 10.4 mph - N/A   Clear
5:52 PM 46.9 °F - 16.0 °F 29% 30.12 in 10.0 mi WSW 8.1 mph - N/A   Clear
6:52 PM 39.0 °F 35.7 °F 15.1 °F 38% 30.12 in 10.0 mi SSW 4.6 mph - N/A   Clear
7:52 PM 35.1 °F 31.0 °F 17.1 °F 48% 30.12 in 10.0 mi SSE 4.6 mph - N/A   Clear
8:52 PM 34.0 °F 29.8 °F 18.0 °F 52% 30.12 in 10.0 mi SSE 4.6 mph - N/A   Clear
9:52 PM 33.1 °F 28.7 °F 18.0 °F 54% 30.12 in 10.0 mi SSE 4.6 mph - N/A   Clear
10:52 PM 32.0 °F 27.5 °F 19.0 °F 59% 30.11 in 10.0 mi South 4.6 mph - N/A   Clear
11:52 PM 32.0 °F 24.8 °F 19.9 °F 61% 30.10 in 10.0 mi South 8.1 mph - N/A   Clear